#timestamp,LO_Frequency,Hit,StdDev 
1692820815.3,286046997.3,N
1692820835.2,286046996.6,N
1692820855.9,286046996.6,N
1692820875.7,286046999.5,N
1692820895.6,286046999.2,N
1692820915.4,286046997.2,N
1692820935.3,286046996.9,N
1692820955.1,286046996.5,N
1692820956.0,286046996.5,N
1692820975.8,286046997.1,N
1692820995.7,286046999.1,N
1692821015.5,286046999.5,N
1692821035.4,286046996.7,N
1692821055.2,286046998.9,N
1692821075.0,286046999.0,N
1692821075.9,286046999.0,N
1692821095.8,286046997.1,N
1692821115.6,286046996.9,N
1692821135.4,286046997.0,N
1692821155.3,286046996.8,N
1692821175.1,286046997.2,N
1692821195.9,286046997.7,N
1692821215.7,286046998.0,N
1692821235.5,286046994.9,Y
1692821255.4,286046998.4,P
1692821275.2,286046999.2,N
1692821295.0,286046998.9,N
1692821295.9,286046998.9,N
1692821315.8,286046998.6,N
1692821335.6,286046998.8,N
1692821355.5,286046999.1,N
1692821375.3,286046998.1,Y
1692821395.1,286046999.8,P
1692821415.9,286046999.9,N
1692821435.7,286047000.0,N
1692821455.5,286047000.1,N
1692821475.4,286047000.3,N
1692821495.2,286046998.1,Y
1692821515.1,286047001.1,P
1692821516.0,286047001.1,N
1692821535.8,286046998.5,N
1692821555.6,286046998.3,N
1692821575.5,286046998.3,N
1692821595.3,286047000.9,N
1692821615.1,286047000.6,N
1692821635.9,286047001.0,N
1692821655.7,286046998.2,N
1692821675.6,286046998.1,N
1692821695.4,286046998.9,N
1692821715.2,286046998.7,N
1692821735.1,286046998.1,N
1692821736.0,286046998.1,N
1692821755.8,286046999.1,N
1692821775.6,286046999.2,N
1692821795.5,286046999.6,N
1692821815.3,286046998.7,N
1692821835.2,286046998.3,N
1692821855.9,286046999.0,N
1692821875.7,286046998.9,N
1692821895.6,286046998.9,N
1692821945.4,286046999.3,E
1692821955.4,286046998.1,N
1692821975.2,286046998.5,P
1692821995.0,286046998.7,P
1692821995.9,286046998.7,Y
1692822015.8,286047000.1,P
1692822035.6,286046999.9,N
1692822055.5,286046999.9,N
1692822075.3,286047000.2,N
1692822095.1,286046999.8,N
1692822115.9,286047000.1,N
1692822135.7,286047002.8,Y
1692822155.5,286047002.4,P
1692822175.4,286047001.9,N
1692822195.2,286047002.7,N
1692822215.1,286047002.4,N
1692822216.0,286047002.4,N
1692822235.8,286047001.5,N
1692822255.6,286047001.6,N
1692822275.5,286047002.6,N
1692822295.3,286047002.2,N
1692822315.2,286047002.1,N
1692822335.9,286047002.6,Y
1692822355.7,286046998.3,P
1692822375.6,286046998.5,N
1692822395.4,286046998.1,N
1692822415.2,286047000.8,N
1692822435.1,286046998.7,N
1692822436.0,286046998.7,N
1692822455.8,286046998.7,N
1692822475.7,286046998.7,N
1692822495.5,286047000.5,N
1692822515.3,286047000.5,N
1692822535.2,286047001.2,N
1692822555.0,286046998.2,N
1692822555.9,286046998.2,N
1692822575.8,286046998.4,N
1692822595.6,286046998.4,N
1692822615.4,286046998.7,N
1692822635.3,286046998.7,N
1692822655.1,286046998.1,N
1692822675.8,286047001.1,N
1692822695.7,286047000.8,N
1692822715.5,286047001.1,N
1692822735.4,286047000.2,N
1692822755.2,286047000.7,N
1692822775.0,286046998.4,N
1692822775.9,286046998.4,N
1692822795.8,286047000.8,N
1692822815.6,286046998.6,N
1692822835.5,286047000.9,N
1692822855.3,286046998.1,N
1692822875.1,286046998.3,N
1692822895.9,286046997.4,N
1692822915.7,286046997.1,N
1692822935.5,286046999.5,N
1692822955.4,286046998.4,N
1692822975.2,286046996.8,N
1692822995.1,286046999.5,N
1692822996.0,286046999.5,N
1692823015.8,286046997.3,N
1692823035.6,286046999.5,N
1692823055.5,286046996.7,N
1692823075.3,286046997.1,N
1692823095.1,286046997.3,N
1692823115.9,286046997.7,N
1692823135.7,286046999.2,N
1692823155.6,286046999.2,N
1692823175.4,286046996.7,N
1692823195.2,286046996.6,N
1692823215.1,286046996.9,N
1692823216.0,286046996.9,N
1692823235.8,286046996.9,N
1692823255.6,286046999.0,N
1692823275.5,286046999.4,N
1692823295.3,286046996.9,N
1692823315.2,286046998.9,N
1692823335.0,286046998.5,N
1692823335.9,286046998.5,N
1692823355.7,286046998.1,N
1692823375.6,286047000.8,N
1692823395.4,286047000.4,N
1692823415.3,286047000.0,N
1692823435.1,286047000.4,N
1692823436.0,286047000.4,N
1692823455.8,286047001.1,N
1692823475.7,286047000.2,N
1692823495.5,286047001.2,N
1692823515.4,286046998.1,N
1692823535.2,286047000.6,N
1692823555.0,286046999.9,N
1692823555.9,286046999.9,N
1692823575.8,286046999.7,N
1692823595.6,286047000.0,N
1692823615.4,286047000.5,N
1692823635.3,286047002.2,N
1692823655.1,286047002.0,N
1692823675.9,286047002.5,N
1692823695.7,286047002.6,N
1692823715.5,286047002.1,N
1692823735.4,286047002.6,N
1692823755.2,286046999.7,N
1692823775.1,286047002.7,N
1692823776.0,286047002.7,N
1692823795.8,286047002.2,N
1692823815.6,286047002.5,N
1692823835.5,286047002.4,N
1692823855.3,286046999.7,N
1692823875.1,286046999.8,N
1692823895.9,286047002.3,N
1692823915.7,286047002.3,N
1692823935.6,286047002.8,N
1692823955.4,286047002.5,N
1692823975.2,286047002.5,N
1692823995.1,286047002.2,N
1692823996.0,286047002.2,N
1692824015.8,286047001.5,N
1692824035.7,286047004.4,Y
1692824055.5,286046999.7,P
1692824075.3,286047002.6,N
1692824095.2,286046999.8,N
1692824115.0,286047002.8,N
1692824115.9,286047002.8,N
1692824135.8,286047002.4,N
1692824155.6,286047002.8,N
1692824175.4,286047002.4,N
1692824195.3,286047002.3,N
1692824215.1,286047002.1,N
1692824235.8,286047001.6,N
1692824255.7,286047002.4,N
1692824275.5,286047000.1,N
1692824295.4,286047002.3,N
1692824315.2,286047002.4,N
1692824335.0,286047002.7,N
1692824335.9,286047002.7,N
1692824355.8,286047002.5,N
1692824375.6,286047001.8,N
1692824395.4,286047001.9,N
